When you browse on this site, cookies collect data to enhance your experience and personalize the content and advertising you see.
Visit our Privacy Policy to learn more. By continuing to use the site, you agree to this use of cookies and data.
  • In Spain
  • List of Countries
  • For 7 days
  • Water Temperature
  • Weather Map
  • Weather Widgets
  • user-avatar
    Login

    Hourly Weather Lublin

    Today, 31 May, Sunday

    Time Temperature Precipitation Wind Pressure Humidity
    00:00 +10°C° 2.9 mm 9 mps 738 mmHg 96%
    01:00 +10°C° 2.9 mm 9 mps 737 mmHg 96%
    02:00 +11°C° 2.9 mm 8 mps 737 mmHg 96%
    03:00 +11°C° 0.8 mm 8 mps 737 mmHg 96%
    04:00 +12°C° 0.8 mm 8 mps 737 mmHg 95%
    05:00 +12°C° 0.8 mm 7 mps 737 mmHg 94%
    06:00 +12°C° 0.2 mm 7 mps 737 mmHg 94%
    07:00 +12°C° 0.2 mm 7 mps 738 mmHg 95%
    08:00 +12°C° 0.2 mm 7 mps 738 mmHg 95%
    09:00 +12°C° 0.2 mm 7 mps 739 mmHg 94%
    10:00 +12°C° 0.2 mm 7 mps 739 mmHg 93%
    11:00 +12°C° 0.2 mm 7 mps 740 mmHg 92%
    12:00 +11°C° 0.2 mm 7 mps 740 mmHg 92%
    13:00 +11°C° 0.2 mm 7 mps 741 mmHg 92%
    14:00 +10°C° 0.2 mm 7 mps 741 mmHg 92%
    15:00 +11°C° 0.1 mm 7 mps 742 mmHg 92%
    16:00 +11°C° 0.1 mm 7 mps 742 mmHg 91%
    17:00 +11°C° 0.1 mm 7 mps 742 mmHg 91%
    18:00 +11°C° 0 mm 6 mps 742 mmHg 90%
    19:00 +10°C° 0 mm 6 mps 743 mmHg 89%
    20:00 +10°C° 0 mm 6 mps 743 mmHg 88%
    21:00 +10°C° 0 mm 6 mps 744 mmHg 88%
    22:00 +10°C° 0 mm 5 mps 744 mmHg 88%
    23:00 +10°C° 0 mm 5 mps 744 mmHg 88%

    Tomorrow, 1 June, Monday

    Time Temperature Precipitation Wind Pressure Humidity
    00:00 +9°C° 0 mm 5 mps 745 mmHg 89%
    01:00 +9°C° 0 mm 5 mps 745 mmHg 91%
    02:00 +8°C° 0 mm 5 mps 745 mmHg 92%
    03:00 +8°C° 0 mm 4 mps 746 mmHg 92%
    04:00 +7°C° 0 mm 4 mps 746 mmHg 91%
    05:00 +7°C° 0 mm 4 mps 746 mmHg 91%
    06:00 +8°C° 0 mm 4 mps 746 mmHg 86%
    07:00 +9°C° 0 mm 5 mps 747 mmHg 82%
    08:00 +10°C° 0 mm 5 mps 747 mmHg 77%
    09:00 +11°C° 0 mm 6 mps 747 mmHg 73%
    10:00 +13°C° 0 mm 6 mps 747 mmHg 68%
    11:00 +14°C° 0 mm 6 mps 747 mmHg 64%
    12:00 +14°C° 0 mm 6 mps 747 mmHg 64%
    13:00 +14°C° 0 mm 6 mps 747 mmHg 64%
    14:00 +14°C° 0 mm 6 mps 747 mmHg 64%
    15:00 +14°C° 0 mm 6 mps 747 mmHg 63%
    16:00 +14°C° 0 mm 6 mps 747 mmHg 63%
    17:00 +14°C° 0 mm 6 mps 747 mmHg 63%
    18:00 +13°C° 0 mm 5 mps 747 mmHg 68%
    19:00 +12°C° 0 mm 4 mps 747 mmHg 73%
    20:00 +10°C° 0 mm 3 mps 747 mmHg 79%
    21:00 +9°C° 0 mm 3 mps 747 mmHg 82%
    22:00 +8°C° 0 mm 3 mps 747 mmHg 84%
    23:00 +7°C° 0 mm 2 mps 747 mmHg 87%

    Day after tomorrow, 2 June, Tuesday

    Time Temperature Precipitation Wind Pressure Humidity
    00:00 +7°C° 0 mm 2 mps 747 mmHg 88%
    01:00 +7°C° 0 mm 2 mps 746 mmHg 90%
    02:00 +5°C° 0 mm 3 mps 746 mmHg 91%
    03:00 +5°C° 0 mm 3 mps 746 mmHg 91%
    04:00 +6°C° 0 mm 2 mps 746 mmHg 90%
    05:00 +6°C° 0 mm 2 mps 745 mmHg 90%
    06:00 +8°C° 0 mm 3 mps 745 mmHg 85%
    07:00 +9°C° 0 mm 3 mps 745 mmHg 80%
    08:00 +11°C° 0 mm 4 mps 745 mmHg 75%
    09:00 +12°C° 0.1 mm 4 mps 745 mmHg 69%
    10:00 +13°C° 0.1 mm 5 mps 744 mmHg 63%
    11:00 +14°C° 0.1 mm 6 mps 744 mmHg 57%
    12:00 +15°C° 0 mm 6 mps 743 mmHg 57%
    13:00 +15°C° 0 mm 5 mps 743 mmHg 57%
    14:00 +16°C° 0 mm 5 mps 743 mmHg 57%
    15:00 +15°C° 0.1 mm 5 mps 742 mmHg 59%
    16:00 +15°C° 0.1 mm 5 mps 742 mmHg 60%
    17:00 +15°C° 0.1 mm 5 mps 742 mmHg 62%
    18:00 +14°C° 0.1 mm 4 mps 741 mmHg 68%
    19:00 +13°C° 0.1 mm 3 mps 741 mmHg 74%
    20:00 +12°C° 0.1 mm 2 mps 741 mmHg 80%
    21:00 +10°C° 0 mm 3 mps 740 mmHg 83%
    22:00 +9°C° 0 mm 3 mps 740 mmHg 86%
    23:00 +8°C° 0 mm 3 mps 740 mmHg 89%

    3 June, Wednesday

    Time Temperature Precipitation Wind Pressure Humidity
    00:00 +8°C° 0 mm 3 mps 740 mmHg 90%
    01:00 +8°C° 0 mm 3 mps 739 mmHg 92%
    02:00 +7°C° 0 mm 3 mps 739 mmHg 93%
    03:00 +7°C° 0 mm 3 mps 739 mmHg 93%
    04:00 +6°C° 0 mm 4 mps 738 mmHg 93%
    05:00 +6°C° 0 mm 4 mps 738 mmHg 93%
    06:00 +7°C° 0.3 mm 4 mps 738 mmHg 92%
    07:00 +7°C° 0.3 mm 4 mps 738 mmHg 91%
    08:00 +8°C° 0.3 mm 4 mps 738 mmHg 90%
    09:00 +10°C° 0.2 mm 4 mps 738 mmHg 88%
    10:00 +10°C° 0.2 mm 4 mps 738 mmHg 85%
    11:00 +11°C° 0.2 mm 4 mps 738 mmHg 83%
    12:00 +12°C° 0.3 mm 4 mps 738 mmHg 83%
    13:00 +12°C° 0.3 mm 4 mps 738 mmHg 84%
    14:00 +12°C° 0.3 mm 4 mps 738 mmHg 84%
    15:00 +12°C° 0.1 mm 4 mps 738 mmHg 86%
    16:00 +12°C° 0.1 mm 4 mps 738 mmHg 88%
    17:00 +11°C° 0.1 mm 4 mps 738 mmHg 90%
    18:00 +11°C° 0.1 mm 4 mps 738 mmHg 91%
    19:00 +11°C° 0.1 mm 3 mps 738 mmHg 93%
    20:00 +10°C° 0.1 mm 3 mps 738 mmHg 94%
    21:00 +10°C° 0 mm 3 mps 738 mmHg 95%
    22:00 +10°C° 0 mm 3 mps 739 mmHg 95%
    23:00 +9°C° 0 mm 2 mps 739 mmHg 96%

    4 June, Thursday

    Time Temperature Precipitation Wind Pressure Humidity
    00:00 +9°C° 0 mm 2 mps 739 mmHg 96%
    01:00 +9°C° 0 mm 2 mps 739 mmHg 96%
    02:00 +8°C° 0 mm 2 mps 739 mmHg 96%
    03:00 +8°C° 0 mm 2 mps 739 mmHg 96%
    04:00 +8°C° 0 mm 2 mps 739 mmHg 97%
    05:00 +8°C° 0 mm 2 mps 739 mmHg 97%
    06:00 +9°C° 0 mm 3 mps 739 mmHg 95%
    07:00 +10°C° 0 mm 3 mps 740 mmHg 93%
    08:00 +11°C° 0 mm 4 mps 740 mmHg 92%
    09:00 +12°C° 0.1 mm 4 mps 740 mmHg 88%
    10:00 +13°C° 0.1 mm 4 mps 740 mmHg 84%
    11:00 +14°C° 0.1 mm 4 mps 740 mmHg 81%
    12:00 +15°C° 0.2 mm 5 mps 740 mmHg 78%
    13:00 +15°C° 0.2 mm 5 mps 740 mmHg 75%
    14:00 +16°C° 0.2 mm 5 mps 740 mmHg 72%
    15:00 +16°C° 0.1 mm 5 mps 740 mmHg 72%
    16:00 +17°C° 0.1 mm 4 mps 739 mmHg 72%
    17:00 +18°C° 0.1 mm 4 mps 739 mmHg 72%
    18:00 +16°C° 0 mm 3 mps 739 mmHg 76%
    19:00 +15°C° 0 mm 2 mps 739 mmHg 80%
    20:00 +14°C° 0 mm 2 mps 739 mmHg 84%
    21:00 +14°C° 0 mm 1 mps 739 mmHg 86%
    22:00 +13°C° 0 mm 1 mps 739 mmHg 87%
    23:00 +12°C° 0 mm 1 mps 739 mmHg 88%

    5 June, Friday

    Time Temperature Precipitation Wind Pressure Humidity
    00:00 +10°C° 0 mm 2 mps 739 mmHg 88%
    01:00 +10°C° 0 mm 2 mps 739 mmHg 88%
    02:00 +10°C° 0 mm 2 mps 739 mmHg 88%
    03:00 +10°C° 0 mm 2 mps 738 mmHg 88%
    04:00 +10°C° 0 mm 2 mps 738 mmHg 87%
    05:00 +11°C° 0 mm 1 mps 738 mmHg 87%
    06:00 +13°C° 0 mm 1 mps 738 mmHg 84%
    07:00 +14°C° 0 mm 2 mps 738 mmHg 81%
    08:00 +15°C° 0 mm 2 mps 738 mmHg 79%
    09:00 +16°C° 0 mm 2 mps 738 mmHg 76%
    10:00 +18°C° 0 mm 2 mps 738 mmHg 74%
    11:00 +19°C° 0 mm 2 mps 738 mmHg 71%
    12:00 +19°C° 0.5 mm 2 mps 738 mmHg 71%
    13:00 +19°C° 0.5 mm 2 mps 738 mmHg 71%
    14:00 +20°C° 0.5 mm 2 mps 738 mmHg 70%
    15:00 +20°C° 0.2 mm 2 mps 738 mmHg 70%
    16:00 +20°C° 0.2 mm 2 mps 738 mmHg 70%
    17:00 +20°C° 0.2 mm 3 mps 738 mmHg 70%
    18:00 +19°C° 0 mm 2 mps 738 mmHg 75%
    19:00 +18°C° 0 mm 2 mps 738 mmHg 81%
    20:00 +17°C° 0 mm 2 mps 738 mmHg 86%
    21:00 +16°C° 0 mm 2 mps 738 mmHg 88%
    22:00 +14°C° 0 mm 3 mps 738 mmHg 91%
    23:00 +13°C° 0 mm 3 mps 739 mmHg 94%
    Show more